Tracking 30289 objects as of 29-Apr-2025
HD Live streaming from Space Station
objects crossing your sky now

SCOUT B DEB

Track SCOUT B DEB now!
10-day predictions


NORAD ID: 29168
Int'l Code: 1965-063S
Perigee: 1,158.8 km
Apogee: 1,771.1 km
Inclination: 69.3 °
Period: 115.1 minutes
Semi major axis: 7835 km
RCS: 0.0859 m2 (small)
Launch date: August 10, 1965
Source: United States (US)
Launch site: WALLOPS ISLAND (WLPIS)

Note: This is SATELLITE DEBRIS
Your satellite tracking list
Your tracking list is empty




NASA's NSSDC Master Catalog

Two Line Element Set (TLE):
1 29168U 65063S   25117.77299149  .00008668  00000-0  42358-1 0  9991
2 29168  69.3137 236.2144 0390678 119.6070  30.8522 12.51592492578152
Source of the keplerian elements: AFSPC